Weather History for Maun, Botswana

Change the Weather History Date:

Thursday, April 11, 2013

  Actual Average Record
Temperature  
Mean Temperature 80 °F -  
Max Temperature 95 °F 84 °F 95 °F (1999)
Min Temperature 64 °F 58 °F 46 °F (2004)
Cooling Degree Days 14    
Growing Degree Days 30 (Base 50)    
Moisture  
Dew Point 46 °F    
Average Humidity 29    
Maximum Humidity 44    
Minimum Humidity 13    
Precipitation  
Precipitation 0.00 in - - ()
Sea Level Pressure  
Sea Level Pressure 30.01 in    
Wind  
Wind Speed 8 mph ()    
Max Wind Speed 14 mph    
Max Gust Speed -    
Visibility 6.1 miles    
Events      
Averages and records for this station are not official NWS values.
T = Trace of Precipitation, MM = Missing Value Source: Averaged Metar Reports

Daily Weather History Graph

Daily Weather History Graph

Search for Another Location

Airport:

Trip Planner

Search our weather history database for the weather conditions in past years. The results will help you decide how hot, cold, wet, or windy it might be!

Date:

Astronomy

Apr. 11, 2013 Rise Set
Actual Time 6:36 AM CAT 6:18 PM CAT
Civil Twilight 6:13 AM CAT 6:40 PM CAT
Nautical Twilight 5:48 AM CAT 7:06 PM CAT
Astronomical Twilight 5:22 AM CAT 7:31 PM CAT
Moon 7:21 AM CAT (4/11) 7:01 PM CAT (4/11)
Length of Visible Light 12h 26m
Length of Day
11h 42m
New Moon, 1% of the Moon is Illuminated
Apr 11
New Moon
Apr 18
First Quarter
Apr 25
Full
May 2
Last Quarter
May 10
New

Hourly Weather History & Observations

Time (CAT) Temp. Heat Index Dew Point Humidity Pressure Visibility Wind Dir Wind Speed Gust Speed Precip Events Conditions
12:00 AM 75.2 °F - 46.4 °F 36% 30.01 in - SW 8.1 mph - N/A   Clear
1:00 AM 75.2 °F - 48.2 °F 38% 30.01 in - South 10.4 mph - N/A   Clear
2:00 AM 72 °F - 41 °F 21%  in 6 mi South 8.1 mph - -  
2:00 AM 73.4 °F - 41.0 °F 31% 30.01 in - South 8.1 mph - N/A   Clear
3:00 AM 71.6 °F - 39.2 °F 31% 30.01 in - South 13.8 mph - N/A   Clear
4:00 AM 71.6 °F - 35.6 °F 27% 30.01 in - SSE 13.8 mph - N/A   Clear
5:00 AM 68.0 °F - 39.2 °F 35% 30.01 in - SE 10.4 mph - N/A   Clear
6:00 AM 68.0 °F - 37.4 °F 33% 30.01 in - SSE 10.4 mph - N/A   Clear
7:00 AM 64.4 °F - 37.4 °F 37% 30.04 in - SSE 11.5 mph - N/A   Clear
8:00 AM 68.0 °F - 37.4 °F 33% 30.06 in - ESE 9.2 mph - N/A   Clear
9:00 AM 73.4 °F - 42.8 °F 33% 30.06 in - East 8.1 mph - N/A   Clear
10:00 AM 78.8 °F - 48.2 °F 34% 30.06 in - ENE 10.4 mph - N/A   Clear
11:00 AM 84.2 °F - 46.4 °F 27% 30.06 in - East 10.4 mph - N/A   Clear
12:00 PM 91.4 °F - 50.0 °F 24% 30.04 in - NE 8.1 mph - N/A   Clear
1:00 PM 93.2 °F - 50.0 °F 23% 30.01 in - NNE 4.6 mph - N/A   Clear
2:00 PM 94 °F - 49 °F 13%  in 6 mi East 8.1 mph - -   Partly Cloudy
2:00 PM 93.2 °F - 48.2 °F 21% 29.98 in 6.2 mi East 10.4 mph - N/A   Partly Cloudy
3:00 PM 95.0 °F - 48.2 °F 20% 29.95 in 6.2 mi NNE 6.9 mph - N/A   Partly Cloudy
4:00 PM 95.0 °F - 46.4 °F 19% 29.95 in 6.2 mi NNW 4.6 mph - N/A   Partly Cloudy
5:00 PM 95.0 °F - 46.4 °F 19% 29.95 in - North 3.5 mph - N/A   Clear
6:00 PM 91.4 °F - 51.8 °F 26% 29.95 in - NNW 4.6 mph - N/A   Clear
7:00 PM 86.0 °F 84.2 °F 53.6 °F 33% 29.95 in - NNW 3.5 mph - N/A   Clear
8:00 PM 80.6 °F - 50.0 °F 34% 29.98 in - ESE 6.9 mph - N/A   Clear
9:00 PM 77.0 °F - 53.6 °F 44% 30.01 in - SE 6.9 mph - N/A   Clear
10:00 PM 77.0 °F - 48.2 °F 36% 30.01 in - ESE 10.4 mph - N/A   Clear
11:00 PM 80.6 °F - 48.2 °F 32% 30.01 in - East 9.2 mph - N/A   Clear